Catalina Airport


Codes: KAVX/CIB
Name: Catalina Airport
City: Avalon
Country: United States
Elevation: 1602 ft.
Wikipedia:

Photos at Catalina Airport


   Photos courtesy of SpottingLog. You can add your own sightings and photos by signing up for a free trial today.



No photos found.

Weather at Catalina Airport


Time (UTC)DescriptionTempratureWindCloud coverageVisibilityPressureHumidity
21-Feb-2024 03:00Light Rain12°C13 mph, S100%10000m1019hPa94%
21-Feb-2024 06:00Light Rain12°C11 mph, S99%10000m1019hPa92%
21-Feb-2024 09:00Light Rain11°C11 mph, SW94%10000m1018hPa88%
21-Feb-2024 12:00Light Rain11°C13 mph, NW96%10000m1018hPa86%
21-Feb-2024 15:00Light Rain11°C9 mph, NW66%10000m1019hPa80%
21-Feb-2024 18:00Scattered Clouds11°C4 mph, W49%10000m1021hPa78%
21-Feb-2024 21:00Scattered Clouds11°C11 mph, W33%10000m1021hPa80%
22-Feb-2024 00:00Broken Clouds11°C9 mph, W56%10000m1021hPa77%
22-Feb-2024 03:00Clear Sky11°C7 mph, W6%10000m1021hPa80%
22-Feb-2024 06:00Scattered Clouds11°C9 mph, W36%10000m1022hPa79%
22-Feb-2024 09:00Overcast Clouds11°C9 mph, W100%10000m1022hPa76%
22-Feb-2024 12:00Overcast Clouds11°C4 mph, W100%10000m1021hPa76%
22-Feb-2024 15:00Broken Clouds11°C2 mph, SW84%10000m1022hPa77%
22-Feb-2024 18:00Broken Clouds11°C7 mph, E67%10000m1023hPa77%
22-Feb-2024 21:00Few Clouds11°C2 mph, W24%10000m1022hPa75%
23-Feb-2024 00:00Scattered Clouds12°C9 mph, W40%10000m1021hPa74%
23-Feb-2024 03:00Overcast Clouds11°C11 mph, NW97%10000m1021hPa84%
23-Feb-2024 06:00Overcast Clouds11°C7 mph, NW91%10000m1020hPa82%
23-Feb-2024 09:00Overcast Clouds12°C7 mph, NW99%10000m1019hPa78%
23-Feb-2024 12:00Overcast Clouds12°C4 mph, NW100%10000m1018hPa74%
23-Feb-2024 15:00Overcast Clouds12°C7 mph, NW100%10000m1018hPa71%
23-Feb-2024 18:00Overcast Clouds13°C4 mph, N96%10000m1019hPa68%
23-Feb-2024 21:00Broken Clouds13°C2 mph, NW58%10000m1017hPa63%
24-Feb-2024 00:00Broken Clouds14°C7 mph, W77%10000m1015hPa58%
24-Feb-2024 03:00Overcast Clouds13°C9 mph, W100%10000m1016hPa67%
24-Feb-2024 06:00Overcast Clouds13°C7 mph, NW100%10000m1016hPa73%
24-Feb-2024 09:00Overcast Clouds12°C4 mph, W100%10000m1016hPa73%
24-Feb-2024 12:00Overcast Clouds12°C4 mph, NW100%10000m1015hPa72%
24-Feb-2024 15:00Overcast Clouds12°C4 mph, W100%10000m1016hPa71%
24-Feb-2024 18:00Overcast Clouds13°C4 mph, SW100%10000m1017hPa69%
24-Feb-2024 21:00Overcast Clouds13°C2 mph, W100%10000m1016hPa71%
25-Feb-2024 00:00Broken Clouds13°C9 mph, W79%10000m1016hPa71%
25-Feb-2024 03:00Clear Sky12°C4 mph, W1%10000m1016hPa75%
25-Feb-2024 06:00Clear Sky12°C4 mph, W1%10000m1017hPa74%
25-Feb-2024 09:00Few Clouds12°C4 mph, W24%10000m1017hPa75%
25-Feb-2024 12:00Broken Clouds12°C4 mph, W62%10000m1016hPa75%
25-Feb-2024 15:00Broken Clouds12°C2 mph, W61%10000m1017hPa76%
25-Feb-2024 18:00Broken Clouds12°C4 mph, W80%10000m1019hPa73%
25-Feb-2024 21:00Overcast Clouds12°C4 mph, W96%10000m1017hPa67%
26-Feb-2024 00:00Overcast Clouds12°C7 mph, W98%10000m1016hPa66%